Weather History for Menomonie, WI

Change the Weather History Date:

Wednesday, July 31, 2013

  Actual Average (KEAU) Record (KEAU)
Temperature  
Mean Temperature 71 °F 71 °F  
Max Temperature 80 °F 82 °F 103 °F (2006)
Min Temperature 62 °F 60 °F 45 °F (1960)
Degree Days  
Heating Degree Days 0 0  
Month to date heating degree days 2  
Since 1 June heating degree days 73  
Since 1 July heating degree days 11  
Cooling Degree Days 6 6  
Month to date cooling degree days 214  
Year to date cooling degree days 366  
Since 1 June cooling degree days 334  
Growing Degree Days 21 (Base 50)    
Moisture  
Dew Point 60 °F    
Average Humidity 73    
Maximum Humidity 97    
Minimum Humidity 40    
Precipitation  
Precipitation 0.00 in 0.14 in 0.63 in (1965)
Month to date precipitation 3.88  
Year to date precipitation 17.65  
Snow  
Snow 0.00 in 0.00 in 0.00 in ()
Month to date snowfall 0.0  
Since 1 June snowfall 0.0  
Since 1 July snowfall 0.0  
Snow Depth -    
Sea Level Pressure  
Sea Level Pressure 30.03 in    
Wind  
Wind Speed 4 mph (West)    
Max Wind Speed 17 mph    
Max Gust Speed 23 mph    
Visibility 8 miles    
Events      
T = Trace of Precipitation, MM = Missing Value Source: NWS Daily Summary

Daily Weather History Graph

Daily Weather History Graph

Search for Another Location

Airport:

Trip Planner

Search our weather history database for the weather conditions in past years. The results will help you decide how hot, cold, wet, or windy it might be!

Date:

Astronomy

Jul. 31, 2013 Rise Set
Actual Time 5:52 AM CDT 8:34 PM CDT
Civil Twilight 5:18 AM CDT 9:08 PM CDT
Nautical Twilight 4:35 AM CDT 9:50 PM CDT
Astronomical Twilight 3:46 AM CDT 10:39 PM CDT
Moon 12:48 AM CDT (7/31) 3:52 PM CDT (7/31)
Length of Visible Light 15h 49m
Length of Day
14h 42m
Waning Crescent, 31% of the Moon is Illuminated
Jul 31
Waning Crescent
Aug 6
New
Aug 14
First Quarter
Aug 20
Full
Aug 28
Last Quarter

Hourly Weather History & Observations

Time (CDT) Temp. Heat Index Dew Point Humidity Pressure Visibility Wind Dir Wind Speed Gust Speed Precip Events Conditions
12:15 AM 66.2 °F - 64.4 °F 94% 30.08 in 7.0 mi Calm Calm - N/A   Overcast
12:35 AM 66.2 °F - 64.4 °F 94% 30.07 in 7.0 mi Calm Calm - N/A   Overcast
12:55 AM 66.0 °F - 64.2 °F 94% 30.06 in 5.0 mi Calm Calm - N/A   Overcast
1:15 AM 65.8 °F - 64.4 °F 95% 30.06 in 5.0 mi Calm Calm - N/A   Overcast
1:35 AM 65.1 °F - 63.5 °F 94% 30.06 in 4.0 mi Calm Calm - N/A   Mostly Cloudy
2:15 AM 64.4 °F - 63.5 °F 97% 30.06 in 1.2 mi Calm Calm - N/A   Mostly Cloudy
2:35 AM 62.8 °F - 61.7 °F 96% 30.05 in 0.8 mi Calm Calm - N/A   Overcast
2:55 AM 64.0 °F - 63.0 °F 96% 30.06 in 4.0 mi West 4.6 mph - N/A   Overcast
3:15 AM 64.4 °F - 63.5 °F 97% 30.05 in 4.0 mi Calm Calm - N/A   Overcast
3:35 AM 64.8 °F - 63.9 °F 97% 30.05 in 4.0 mi Calm Calm - N/A   Overcast
3:55 AM 64.8 °F - 63.9 °F 97% 30.05 in 4.0 mi Calm Calm - N/A   Overcast
4:15 AM 64.8 °F - 63.7 °F 96% 30.05 in 4.0 mi Calm Calm - N/A   Overcast
4:35 AM 64.4 °F - 63.3 °F 96% 30.06 in 5.0 mi West 3.5 mph - N/A   Overcast
4:55 AM 64.4 °F - 63.1 °F 96% 30.08 in 5.0 mi West 4.6 mph - N/A   Overcast
5:15 AM 64.4 °F - 62.8 °F 94% 30.07 in 5.0 mi West 3.5 mph - N/A   Overcast
5:35 AM 63.9 °F - 62.2 °F 94% 30.07 in 5.0 mi West 4.6 mph - N/A   Overcast
5:55 AM 63.7 °F - 62.1 °F 94% 30.08 in 4.0 mi West 4.6 mph - N/A   Overcast
6:15 AM 63.0 °F - 61.7 °F 96% 30.07 in 3.0 mi WNW 6.9 mph - N/A   Scattered Clouds
6:35 AM 63.5 °F - 62.1 °F 95% 30.07 in 2.0 mi West 6.9 mph - N/A   Overcast
6:55 AM 63.9 °F - 62.6 °F 96% 30.07 in 1.0 mi West 4.6 mph - N/A   Overcast
7:15 AM 64.4 °F - 63.0 °F 95% 30.07 in 1.5 mi WSW 4.6 mph - N/A   Overcast
7:35 AM 65.1 °F - 63.1 °F 93% 30.07 in 2.5 mi WSW 6.9 mph - N/A   Overcast
7:55 AM 65.3 °F - 62.8 °F 92% 30.07 in 4.0 mi West 6.9 mph - N/A   Overcast
8:15 AM 65.8 °F - 62.6 °F 89% 30.07 in 4.0 mi WSW 4.6 mph - N/A   Overcast
8:35 AM 66.2 °F - 62.8 °F 89% 30.08 in 4.0 mi West 3.5 mph - N/A   Overcast
8:55 AM 66.9 °F - 63.3 °F 88% 30.07 in 5.0 mi WSW 3.5 mph - N/A   Overcast
9:15 AM 68.4 °F - 63.3 °F 84% 30.06 in 5.0 mi Calm Calm - N/A   Haze
9:35 AM 70.0 °F - 63.5 °F 80% 30.06 in 7.0 mi West 3.5 mph - N/A   Scattered Clouds
9:55 AM 71.6 °F - 63.3 °F 75% 30.06 in 7.0 mi WSW 6.9 mph - N/A   Scattered Clouds
10:15 AM 72.1 °F - 63.5 °F 74% 30.06 in 10.0 mi West 6.9 mph - N/A   Scattered Clouds
10:35 AM 72.5 °F - 63.3 °F 73% 30.05 in 10.0 mi WSW 4.6 mph - N/A   Scattered Clouds
10:55 AM 72.5 °F - 63.7 °F 74% 30.05 in 10.0 mi WSW 8.1 mph - N/A   Scattered Clouds
11:15 AM 72.5 °F - 63.9 °F 74% 30.05 in 10.0 mi West 5.8 mph - N/A   Mostly Cloudy
11:35 AM 72.9 °F - 63.7 °F 73% 30.04 in 10.0 mi West 6.9 mph - N/A   Scattered Clouds
11:55 AM 72.3 °F - 63.9 °F 75% 30.05 in 10.0 mi West 8.1 mph - N/A   Mostly Cloudy
12:15 PM 72.3 °F - 64.4 °F 76% 30.06 in 10.0 mi WSW 10.4 mph - N/A   Mostly Cloudy
12:35 PM 71.8 °F - 63.9 °F 76% 30.05 in 10.0 mi West 10.4 mph - N/A   Mostly Cloudy
12:55 PM 72.3 °F - 63.1 °F 73% 30.04 in 10.0 mi West 8.1 mph - N/A   Scattered Clouds
1:15 PM 72.5 °F - 63.3 °F 73% 30.04 in 10.0 mi West 9.2 mph - N/A   Clear
1:35 PM 72.7 °F - 62.8 °F 71% 30.03 in 10.0 mi West 9.2 mph - N/A   Clear
1:55 PM 73.4 °F - 62.4 °F 68% 30.02 in 10.0 mi WSW 9.2 mph - N/A   Clear
2:15 PM 75.0 °F - 61.7 °F 63% 30.03 in 10.0 mi WSW 11.5 mph - N/A   Clear
2:35 PM 77.2 °F - 58.3 °F 52% 30.02 in 10.0 mi WSW 12.7 mph 17.3 mph N/A   Clear
2:55 PM 77.7 °F - 58.8 °F 52% 30.02 in 10.0 mi West 15.0 mph - N/A   Scattered Clouds
3:15 PM 78.8 °F - 56.3 °F 46% 30.01 in 10.0 mi West 16.1 mph 20.7 mph N/A   Scattered Clouds
3:35 PM 79.9 °F - 56.5 °F 45% 30.00 in 10.0 mi West 13.8 mph 21.9 mph N/A   Scattered Clouds
3:55 PM 80.2 °F 80.1 °F 54.0 °F 40% 30.00 in 10.0 mi West 17.3 mph 23.0 mph N/A   Scattered Clouds
4:15 PM 79.7 °F - 54.0 °F 41% 29.99 in 10.0 mi West 15.0 mph 18.4 mph N/A   Scattered Clouds
4:35 PM 77.5 °F - 54.5 °F 45% 29.99 in 10.0 mi West 11.5 mph - N/A   Mostly Cloudy
4:55 PM 79.7 °F - 55.0 °F 43% 29.99 in 10.0 mi West 11.5 mph - N/A   Scattered Clouds
5:15 PM 79.3 °F - 53.6 °F 41% 29.98 in 10.0 mi West 10.4 mph - N/A   Clear
5:35 PM 77.0 °F - 54.7 °F 46% 29.98 in 10.0 mi West 9.2 mph - N/A   Clear
5:55 PM 76.6 °F - 55.6 °F 48% 29.98 in 10.0 mi WNW 15.0 mph - N/A   Mostly Cloudy
6:15 PM 75.9 °F - 56.5 °F 51% 29.98 in 10.0 mi WNW 10.4 mph 13.8 mph N/A   Overcast
6:35 PM 77.2 °F - 55.2 °F 47% 29.98 in 10.0 mi WNW 12.7 mph - N/A   Scattered Clouds
6:55 PM 76.5 °F - 54.0 °F 46% 29.98 in 10.0 mi WNW 10.4 mph - N/A   Clear
7:15 PM 76.1 °F - 54.9 °F 48% 29.97 in 10.0 mi WNW 9.2 mph - N/A   Clear
7:35 PM 75.2 °F - 53.8 °F 47% 29.97 in 10.0 mi West 9.2 mph - N/A   Clear
7:55 PM 74.3 °F - 52.7 °F 47% 29.98 in 10.0 mi WNW 8.1 mph - N/A   Clear
8:15 PM 72.5 °F - 52.9 °F 50% 29.98 in 10.0 mi West 6.9 mph - N/A   Clear
8:35 PM 70.5 °F - 52.9 °F 54% 29.98 in 10.0 mi West 4.6 mph - N/A   Clear
8:55 PM 69.6 °F - 52.9 °F 55% 29.98 in 10.0 mi West 4.6 mph - N/A   Clear
9:15 PM 68.9 °F - 53.8 °F 58% 29.99 in 10.0 mi West 5.8 mph - N/A   Clear
9:35 PM 67.3 °F - 53.6 °F 61% 30.00 in 10.0 mi West 4.6 mph - N/A   Clear
9:55 PM 66.4 °F - 53.6 °F 63% 30.00 in 10.0 mi West 3.5 mph - N/A   Clear
10:15 PM 66.2 °F - 54.1 °F 65% 30.00 in 10.0 mi West 4.6 mph - N/A   Clear
10:35 PM 64.8 °F - 54.5 °F 69% 30.00 in 10.0 mi West 4.6 mph - N/A   Clear
10:55 PM 63.7 °F - 54.1 °F 71% 30.00 in 10.0 mi West 5.8 mph - N/A   Clear
11:15 PM 63.1 °F - 54.5 °F 73% 30.00 in 10.0 mi WSW 5.8 mph - N/A   Scattered Clouds
11:55 PM 62.1 °F - 54.0 °F 75% 30.00 in 10.0 mi WSW 5.8 mph - N/A   Scattered Clouds